Location: Holcomb Observatory and Planetarium
(39.8415°N, 86.1714°W)
Time: 21:18:47
(UTC-04:00)

Hubble Space Telescope - Visible Passes

Search period start: 29 May 2017 00:00
Search period end: 08 June 2017 00:00
Orbit: 538 x 542 km, 28.5° (Epoch: 29 May)

Date Brightness Start Highest point End Pass type
(mag) Time Alt. Az. Time Alt. Az. Time Alt. Az.
29 May 2.7 22:05:22 10° SSW 22:07:19 13° SSE 22:08:03 13° SSE visible
30 May 2.6 21:54:52 10° SSW 21:57:07 14° S 21:58:52 12° SE visible
31 May 2.6 21:44:29 10° SSW 21:46:57 15° S 21:49:25 10° SE visible
01 Jun 2.6 21:34:10 10° SW 21:36:46 16° S 21:39:22 10° SE visible
01 Jun 3.1 23:14:56 10° SW 23:15:28 12° SW 23:15:28 12° SW visible
02 Jun 3.0 23:05:02 10° SW 23:05:56 12° SSW 23:05:56 12° SSW visible
03 Jun 3.0 22:55:16 10° SW 22:56:20 12° SSW 22:56:20 12° SSW visible
04 Jun 3.1 22:45:57 10° SSW 22:46:43 10° SSW 22:46:43 10° SSW visible
